GFSGBSN_850_temp_054.txt.gz
Temp
12 12 12 11 10 10 10 10 10 10 10 10 11 11 12 12 13 13 13 13 14 14 14 14 14 14 14 14 18 19 19 19 19 19 19 19 18 18 17 19 20 18 19 19 17 18 17
12 12 12 12 11 10 10 10 10 10 9 10 10 11 11 12 12 13 13 13 14 14 13 13 13 13 13 12 19 19 18 19 19 19 20 19 19 19 19 20 19 20 17 16 16 17 17
12 11 11 11 12 11 11 10 9 10 10 9 10 10 11 12 12 13 13 13 14 13 13 13 13 13 13 18 19 18 18 19 18 19 20 20 20 19 20 19 21 20 16 16 16 16 17
11 11 11 11 11 11 11 10 9 9 9 9 10 10 11 11 12 13 13 13 13 13 13 13 13 12 14 19 18 19 19 19 19 19 19 20 20 20 21 20 20 19 17 16 16 17 18
7 10 11 11 11 11 11 11 10 9 9 9 9 9 10 11 11 12 13 13 13 14 13 13 12 12 15 19 19 20 19 20 20 20 20 20 20 20 20 17 16 18 17 18 18 19 18
5 6 9 11 11 11 11 11 11 9 9 9 9 9 9 10 11 12 12 13 14 14 13 12 12 11 17 19 18 20 20 20 20 20 20 20 19 15 15 16 16 17 18 18 18 17 18
3 4 4 8 11 10 11 11 11 10 8 8 8 8 9 10 10 11 12 13 13 13 12 14 15 16 17 18 19 20 20 20 20 20 16 19 16 16 17 17 18 18 18 17 18 18 17
2 2 2 4 9 10 10 10 11 10 9 8 7 8 8 9 10 11 11 12 12 11 11 15 16 15 17 16 15 20 20 20 19 17 18 17 16 17 19 18 17 17 17 18 18 19 18
1 2 2 3 3 9 9 10 10 10 9 8 8 8 8 9 10 11 12 12 11 12 11 14 15 15 18 18 16 19 20 20 19 17 17 15 17 18 19 17 17 17 16 17 17 18 18
1 2 2 2 2 3 6 8 10 10 9 8 8 8 9 9 10 11 12 12 12 13 10 13 15 17 17 18 18 20 20 20 19 17 16 16 18 18 17 18 18 16 18 17 18 17 17
1 1 1 1 1 2 3 4 7 9 9 8 7 8 8 8 10 11 11 11 12 12 9 17 17 19 18 19 20 20 21 20 18 17 17 17 16 17 18 18 18 16 17 18 18 16 17
1 1 1 1 1 2 2 2 4 6 8 8 7 7 8 8 10 12 11 12 12 11 10 17 19 17 17 18 19 21 21 21 21 18 18 18 18 18 18 19 18 18 18 16 14 14 14
0 1 0 1 1 1 1 2 2 4 5 6 7 6 7 9 9 11 11 12 10 11 16 17 17 17 17 17 18 19 19 19 17 17 16 17 18 19 19 18 17 18 15 13 12 11 13
1 0 0 0 1 1 1 2 2 2 4 4 6 6 7 8 9 9 11 10 10 12 14 18 18 17 16 17 18 18 18 17 17 17 15 15 15 18 18 18 18 16 16 12 15 11 12
0 1 0 0 1 1 1 1 2 2 3 4 5 6 7 9 9 8 9 10 9 12 16 17 18 16 16 17 18 17 16 16 17 16 15 15 16 15 16 18 18 17 15 16 14 12 9
-1 1 0 0 -0 1 1 2 1 2 3 3 4 5 6 9 8 7 8 10 11 14 16 17 17 17 15 16 16 16 16 17 18 17 17 16 16 15 15 18 17 17 17 15 12 15 15
-1 -0 -0 -0 -0 -1 -0 1 2 2 2 3 3 6 6 7 7 6 8 9 11 14 15 15 16 17 16 16 16 15 17 18 18 18 16 15 14 15 15 16 16 17 17 17 14 12 12
-1 -1 -1 -1 -1 -1 -0 0 1 2 2 2 4 6 7 7 7 7 9 10 12 13 13 14 16 15 18 16 16 16 17 18 19 18 16 15 12 12 16 17 16 15 16 15 10 15 11
-1 -1 -1 -1 -1 -1 -1 -0 1 2 2 2 5 7 7 8 6 6 9 10 11 12 14 15 15 16 18 18 18 16 17 18 19 18 16 16 14 12 14 15 16 16 16 16 13 10 12
-1 -1 -1 -1 -0 -1 -1 -1 0 1 2 2 6 6 6 6 9 8 8 9 9 12 12 13 14 15 15 17 17 18 17 17 17 17 18 17 14 13 12 14 16 17 18 17 14 9 12
-1 -2 -2 -1 -0 -1 -1 -1 -0 1 2 2 6 7 8 7 7 9 9 10 10 11 13 15 14 14 14 15 17 16 15 16 16 17 17 15 15 16 15 16 17 17 18 17 16 15 13
-1 -2 -2 -2 -1 -1 -1 -1 -0 -0 2 1 6 7 9 8 9 8 8 9 10 11 13 14 13 14 14 14 15 16 15 15 15 16 16 14 14 16 16 14 15 16 16 15 16 16 16
-2 -2 -2 -2 -1 -0 -0 -1 -1 -0 2 1 3 8 10 9 8 8 8 10 11 13 13 15 15 14 14 15 17 18 19 18 16 14 13 13 12 9 12 11 13 10 13 15 16 16 16
-2 -2 -2 -2 -1 -1 -0 -0 -1 -0 1 3 3 7 9 6 9 9 10 10 11 12 12 14 15 14 16 18 17 17 16 14 14 13 14 11 10 6 7 8 9 13 14 15 13 13 12
-2 -2 -2 -2 -2 -1 -0 -1 -1 -0 1 2 3 4 8 6 9 10 10 10 12 13 12 14 15 16 17 16 11 12 8 11 13 12 13 12 8 7 8 7 11 14 16 14 13 13 12
-2 -2 -2 -2 -2 -1 -2 -1 -0 -0 2 1 3 5 6 5 8 11 9 11 11 11 11 13 14 16 15 9 7 11 10 12 12 12 11 10 7 8 5 8 8 11 14 16 13 10 13
-1 -1 -2 -2 -1 -1 -1 -2 -0 0 1 1 3 2 4 6 9 11 10 10 12 12 10 11 13 12 13 4 6 8 9 12 10 10 9 6 4 6 2 5 7 10 14 15 11 10 12
-1 -2 -2 -2 -2 -1 -1 -1 -1 0 1 2 1 1 2 5 7 8 11 12 13 13 10 10 11 9 7 6 7 8 6 8 9 11 9 9 6 4 4 5 9 13 13 12 10 11 12
-1 -1 -2 -1 -1 -1 -1 -0 0 1 1 1 1 1 3 3 5 7 9 10 10 12 13 12 13 10 10 8 7 6 7 5 8 8 11 10 9 7 8 7 10 12 12 12 12 11 10

GFSGBSN_850_temp_057.txt.gz
Temp
11 11 11 11 11 10 10 10 10 10 10 10 10 11 11 12 12 12 12 13 13 13 14 14 14 14 14 14 17 18 19 19 19 19 19 18 18 18 17 17 17 16 16 17 17 16 16
11 11 11 11 11 11 10 10 9 10 10 9 9 10 11 11 12 12 12 12 13 13 13 13 13 13 13 12 18 18 19 18 19 19 19 19 19 19 18 17 18 15 15 15 16 16 15
10 10 11 10 11 11 11 11 10 9 9 9 10 10 10 10 11 12 12 12 13 13 13 13 13 13 13 17 18 18 19 19 18 18 18 19 19 19 19 18 19 17 14 15 16 16 16
8 9 8 10 11 11 11 11 11 10 9 9 9 10 10 10 11 11 12 12 13 13 13 13 12 12 14 18 18 19 19 19 19 19 19 19 19 19 19 19 18 17 15 14 16 16 17
3 5 8 9 10 10 11 11 10 11 9 8 9 9 9 10 10 11 12 12 13 13 13 13 12 12 15 18 18 19 19 19 19 19 20 19 19 19 19 16 15 16 15 16 17 16 17
2 3 3 5 7 9 10 10 10 11 10 9 8 9 9 9 10 10 11 12 13 13 13 12 11 11 17 18 18 19 19 19 19 19 19 19 19 14 13 14 14 16 16 18 16 18 17
1 2 2 3 4 4 8 10 10 10 11 10 8 8 8 8 9 10 11 12 12 12 11 14 15 15 17 18 18 19 19 20 19 19 16 18 15 15 16 17 17 17 17 16 16 17 17
2 1 1 2 2 3 4 7 9 10 10 10 8 8 8 7 8 9 10 12 11 10 10 14 15 14 16 16 15 19 19 20 18 16 16 16 16 16 17 17 17 17 16 16 16 17 16
2 2 1 1 2 2 3 3 5 7 10 9 8 7 8 7 8 9 11 11 10 10 10 13 14 14 16 16 16 19 19 20 18 16 16 15 17 18 18 17 17 17 16 15 16 16 16
1 2 2 2 1 1 2 3 3 5 6 8 8 7 7 7 8 10 11 10 11 12 9 12 13 15 15 17 17 19 19 20 18 16 15 15 16 17 17 17 17 16 16 16 16 16 15
1 2 2 2 2 1 2 2 3 3 5 5 6 7 7 7 9 10 10 10 11 11 9 15 15 17 17 18 19 18 20 20 16 16 16 16 16 16 17 17 17 16 17 17 17 16 16
1 1 2 2 2 1 1 1 2 2 3 4 5 6 6 7 8 11 10 11 11 9 10 15 16 15 15 17 18 19 19 20 19 17 16 17 17 17 17 18 17 17 16 14 13 13 14
1 1 1 1 2 2 1 1 2 2 2 3 4 5 6 7 7 9 10 11 9 9 14 16 16 15 15 15 17 18 18 16 15 15 16 17 17 18 18 18 17 16 14 12 13 11 13
1 1 1 2 1 1 1 1 1 2 2 2 4 5 5 6 7 8 9 10 8 11 11 15 17 15 15 16 17 16 16 15 16 16 13 14 15 17 18 18 17 16 14 11 15 11 11
1 1 0 1 2 1 1 1 1 1 2 2 3 4 4 6 7 7 8 10 8 11 14 15 16 15 15 16 16 17 15 14 15 15 15 14 15 15 16 17 17 16 15 15 11 10 9
1 1 0 0 1 1 1 1 1 1 2 2 2 2 5 6 7 6 7 10 11 12 14 14 15 15 14 15 15 15 14 16 16 15 16 15 16 15 16 17 16 16 15 14 11 14 14
1 1 1 0 0 1 0 1 1 1 2 2 2 3 5 6 6 6 7 9 11 13 13 13 14 16 15 14 15 14 16 17 16 16 15 14 14 15 15 15 15 15 15 15 13 10 12
1 1 1 0 -1 -0 1 0 1 1 2 2 2 4 6 6 5 6 7 9 11 13 13 13 13 14 16 15 14 15 15 17 19 15 15 14 12 12 16 16 16 15 15 14 10 14 10
1 1 1 0 -1 -0 -0 1 1 0 1 2 2 5 6 7 7 6 8 9 10 12 12 12 13 14 14 15 15 14 15 17 18 15 14 14 12 12 14 14 14 14 14 14 11 9 10
1 1 0 1 -1 -1 0 -0 0 2 1 2 3 5 5 5 8 8 7 8 9 11 11 11 12 13 15 15 16 16 15 16 16 16 17 17 13 13 13 15 15 16 17 15 13 8 11
1 1 0 -0 -1 -1 0 -0 0 2 0 1 3 6 7 7 6 8 8 8 9 10 10 11 11 12 13 13 15 16 15 15 16 14 15 14 14 14 14 15 16 16 16 14 14 13 12
1 1 0 -0 -1 -1 0 -0 1 0 0 1 4 6 7 6 8 8 8 8 9 10 11 10 11 13 12 12 14 15 15 14 15 15 15 13 13 15 14 13 14 15 15 15 14 15 13
1 1 -0 -0 -1 -1 -0 1 1 0 -0 1 3 5 7 7 7 8 8 8 9 10 11 12 12 12 12 12 14 16 17 16 15 13 12 13 10 9 12 11 12 10 11 13 14 14 14
1 0 -0 -0 -1 -1 -0 -1 1 1 -0 -0 4 3 6 6 7 8 9 10 9 10 10 12 12 11 13 15 16 14 13 13 13 12 12 10 9 6 7 8 9 13 13 13 13 12 11
1 -0 -0 -1 -1 -1 -1 -0 1 1 -1 -1 2 3 5 4 7 9 8 9 9 10 10 11 13 14 14 14 11 12 7 11 12 10 12 11 7 6 8 8 10 13 12 12 13 13 12
-0 -0 -1 -1 -2 -2 -1 -0 1 1 -0 -1 1 2 3 5 7 9 8 9 8 9 9 11 12 13 14 9 7 10 10 11 11 12 10 9 7 7 4 8 8 11 12 15 12 10 12
-0 -1 -1 -2 -2 -2 -1 -1 0 -0 -0 -1 0 2 2 5 9 9 8 8 10 10 9 10 11 11 13 4 6 7 10 11 10 9 8 6 4 7 2 5 7 10 13 14 11 10 12
-1 -1 -2 -2 -2 -2 -2 -2 -2 -1 -0 -1 0 2 3 4 6 8 10 10 10 10 7 9 10 9 6 6 7 6 6 8 8 10 9 9 7 4 3 4 10 12 12 11 10 11 13
-2 -1 -2 -2 -2 -2 -2 -2 -2 -1 -1 -1 1 1 2 3 4 5 8 10 10 10 11 11 10 9 10 7 6 5 6 4 7 8 10 11 9 8 8 8 10 11 12 13 14 13 11

GFSGBSN_850_temp_060.txt.gz
Temp
8 8 9 10 9 10 10 9 9 9 9 9 9 9 10 10 11 11 12 13 13 13 13 13 13 13 14 14 17 18 18 18 18 18 18 18 19 18 17 16 16 16 15 15 16 15 15
4 7 7 9 10 10 10 10 9 9 9 9 9 9 9 10 10 10 11 12 13 13 13 13 13 13 12 11 18 18 18 18 18 18 18 18 19 18 18 17 17 15 14 14 14 15 15
4 4 4 6 9 9 10 10 10 10 9 9 9 8 9 9 10 10 11 11 12 12 13 13 12 12 12 16 18 18 19 18 18 18 18 18 18 18 18 17 17 16 15 15 15 15 15
3 3 3 4 4 6 8 10 10 10 10 9 9 8 8 9 9 9 10 11 12 13 13 12 12 12 13 17 18 18 18 19 19 18 18 18 18 18 18 18 17 16 14 14 16 15 14
2 2 3 3 3 4 5 5 10 10 10 10 9 8 8 9 9 9 10 10 11 13 13 13 12 11 14 17 18 18 19 19 19 19 19 18 18 18 18 14 13 14 14 15 17 15 14
2 3 2 2 3 3 3 4 5 9 10 10 9 8 7 8 8 8 9 10 12 13 12 12 11 11 16 17 18 18 19 19 19 19 18 18 18 13 12 13 13 15 16 17 16 16 15
1 2 3 2 2 2 2 3 3 5 9 10 10 8 7 7 7 8 9 10 12 11 10 14 14 14 16 17 18 19 19 19 19 18 16 16 14 14 14 15 15 16 16 16 17 17 17
1 2 2 2 2 2 2 2 3 4 6 8 9 9 7 7 7 7 8 9 10 9 9 14 14 13 15 15 14 18 18 19 18 15 16 14 14 16 16 16 16 17 16 16 16 16 15
2 1 1 2 2 2 2 2 2 3 3 6 8 8 7 7 7 7 8 10 10 10 9 12 14 14 15 15 15 17 18 19 16 15 15 14 16 16 16 16 16 16 16 15 15 15 15
1 2 1 1 2 2 2 1 2 2 3 4 6 7 7 7 7 7 8 10 10 10 8 11 12 13 14 16 16 18 19 19 17 16 14 15 15 16 16 16 15 15 16 16 15 15 14
1 1 2 1 1 2 2 2 1 2 3 3 4 5 6 6 7 8 9 9 10 10 9 14 13 14 15 16 17 18 19 19 16 16 15 16 16 15 15 15 16 15 15 15 16 15 15
1 1 1 1 1 1 2 2 1 1 2 3 3 3 5 6 6 8 9 9 10 9 8 14 14 13 14 16 17 16 17 19 18 15 15 16 16 15 16 17 16 17 16 13 12 12 13
2 1 1 2 1 1 2 2 2 1 1 2 2 3 4 5 6 7 8 9 9 8 13 14 14 14 14 14 16 16 15 15 14 14 14 16 16 17 17 17 16 15 13 12 12 11 13
2 1 1 2 1 1 1 2 2 1 1 2 2 2 3 4 6 6 7 8 8 10 11 14 15 13 13 14 15 15 14 14 15 14 12 13 14 16 17 17 16 15 14 11 15 11 11
1 2 1 1 1 1 1 2 1 1 1 2 2 2 2 4 6 6 7 8 9 10 12 14 15 14 14 15 15 15 13 13 14 14 15 13 15 15 15 16 17 15 14 14 11 9 8
1 1 1 1 1 1 1 1 1 1 1 2 2 2 2 4 5 6 6 9 10 11 13 13 13 14 12 13 14 14 13 14 15 14 15 14 15 15 15 16 16 16 14 13 10 14 13
1 1 1 1 1 1 1 1 1 1 1 2 2 2 3 4 5 6 6 8 11 12 12 12 13 14 13 13 13 13 13 16 15 14 15 13 14 14 15 14 14 14 14 12 12 10 12
1 1 1 1 1 1 1 1 1 1 0 1 2 2 5 5 5 7 8 8 11 12 12 12 12 12 13 13 13 13 14 16 17 14 14 14 12 11 14 15 15 14 13 12 10 13 9
1 1 1 1 1 1 1 0 1 1 0 1 2 3 4 5 5 7 8 8 9 11 11 11 11 13 13 14 15 13 13 16 16 14 13 13 12 12 13 13 14 15 14 12 10 8 10
2 1 1 1 1 1 0 1 1 1 0 0 1 2 4 4 7 8 8 8 8 10 10 11 10 12 14 14 13 14 14 15 15 15 16 15 11 12 13 13 13 14 14 12 12 8 11
1 1 1 1 1 1 1 1 0 0 1 0 1 3 5 5 5 7 8 9 8 9 10 10 10 10 13 13 14 15 14 15 15 14 13 13 13 12 13 14 14 15 15 12 12 12 12
1 1 2 1 2 1 1 1 0 0 1 1 0 4 6 6 6 6 8 8 9 8 9 9 9 11 10 11 13 14 15 14 14 12 12 11 13 13 14 13 14 15 14 12 13 13 12
1 1 0 1 2 1 1 1 0 0 0 -0 0 4 7 7 7 6 7 8 8 9 10 10 11 11 11 11 13 14 14 14 14 13 11 11 9 9 12 11 12 10 11 12 13 12 12
1 1 1 1 1 0 0 0 -0 -0 1 -0 0 4 5 4 6 7 7 9 8 9 9 10 10 10 12 14 14 14 12 11 12 11 11 9 9 6 7 7 9 13 12 12 12 12 12
0 1 1 1 1 0 -0 -0 0 -0 -0 -0 2 3 6 3 6 7 7 9 9 9 9 10 11 12 12 13 11 11 7 11 11 9 11 9 7 7 8 8 10 13 12 11 12 12 10
0 1 1 1 1 0 -0 -0 -0 0 -0 -0 1 2 2 4 5 8 8 8 8 7 7 9 11 11 12 8 8 10 9 10 10 11 9 8 6 8 4 8 9 10 12 13 13 10 10
0 1 1 1 0 -0 -0 -0 0 1 0 -1 -1 0 1 2 6 8 7 7 9 8 6 8 9 10 11 3 5 6 9 10 9 9 8 6 4 7 2 6 7 9 12 14 11 10 10
1 1 0 -0 -0 -0 -0 -0 0 0 -1 -1 -1 -0 0 2 4 7 9 9 9 9 5 8 9 8 5 6 6 5 5 8 8 10 9 10 8 5 3 5 10 11 11 11 10 12 12
0 -0 -0 -0 -0 -1 -1 -0 -0 -1 -1 -1 0 0 1 2 4 5 7 9 10 9 9 10 10 8 9 7 5 3 5 4 8 9 9 9 10 9 9 9 10 12 12 14 14 13 12

GFSGBSN_850_temp_066.txt.gz
Temp
3 4 3 3 5 6 6 7 7 9 10 10 10 10 9 8 8 8 9 9 10 11 11 12 13 13 14 14 16 18 18 18 18 17 16 17 19 20 21 21 20 20 21 19 18 18 18
3 3 4 3 3 3 4 5 6 6 9 10 10 10 9 10 9 8 8 9 10 10 11 11 12 12 11 15 17 17 17 18 18 17 17 17 19 19 20 21 21 20 19 19 19 19 19
2 2 2 3 3 3 3 3 3 5 8 8 10 10 10 9 9 8 8 9 10 10 10 11 12 12 11 14 17 17 17 17 17 17 18 18 18 19 20 21 19 20 21 21 20 20 21
2 1 2 2 2 3 3 3 3 2 4 7 8 9 10 10 9 8 7 8 10 10 10 11 11 12 12 16 17 17 17 17 17 18 17 17 18 18 19 19 20 21 21 21 22 21 19
2 2 3 3 2 2 2 3 2 3 3 4 6 8 9 9 9 8 7 8 10 10 10 11 11 11 14 15 16 17 17 17 17 18 17 17 17 19 19 21 21 22 21 21 21 21 21
2 2 2 3 3 2 2 3 3 2 2 3 4 6 8 8 8 8 7 8 10 10 10 10 10 11 14 17 16 16 17 17 17 17 17 17 19 21 21 21 20 21 21 21 21 21 21
3 2 2 2 2 3 3 2 3 3 2 2 2 4 5 7 7 8 7 7 9 9 7 13 13 14 15 15 16 16 17 17 18 18 20 19 20 20 22 21 21 22 21 21 22 22 21
4 4 3 2 2 2 2 2 2 2 3 2 2 3 4 5 7 7 6 8 8 8 10 11 12 12 14 13 15 16 17 18 19 20 20 20 20 22 21 21 20 21 20 21 21 21 21
4 4 3 2 2 2 2 2 2 2 3 2 2 2 3 4 6 7 6 7 8 8 10 12 12 13 13 13 15 17 17 19 20 20 20 20 21 20 20 20 20 21 20 20 20 21 21
4 4 4 3 2 1 1 2 2 2 2 2 2 2 3 3 5 6 6 7 8 8 12 15 13 14 13 15 16 17 17 19 20 20 21 21 21 20 20 20 21 20 21 20 20 20 21
3 3 3 3 2 1 1 2 2 2 2 2 2 2 2 2 5 6 6 7 9 8 13 17 14 13 14 16 18 17 17 18 20 20 20 20 20 19 19 20 20 21 19 20 20 20 20
1 1 1 1 1 1 2 2 2 2 2 2 2 2 2 2 4 6 7 7 8 11 12 16 14 14 14 15 17 17 17 18 20 21 20 22 19 20 21 20 20 20 19 19 20 20 19
1 1 2 2 2 2 2 2 2 2 1 2 2 2 2 3 4 5 6 7 10 11 16 16 15 15 16 16 17 18 19 18 19 18 19 20 20 20 19 20 19 20 20 19 18 19 19
1 1 1 1 1 1 2 2 2 1 1 2 2 2 2 2 3 4 6 7 10 15 15 16 16 15 16 18 18 18 19 19 20 20 20 19 18 20 21 21 21 20 21 19 18 18 19
1 1 1 1 2 2 1 1 2 1 1 2 2 1 2 2 3 4 6 7 11 14 15 15 15 15 15 17 19 18 19 19 20 20 19 19 20 20 20 20 21 19 19 20 18 16 17
1 1 1 1 2 2 2 1 1 1 1 2 1 1 1 3 3 3 5 9 12 15 15 15 15 16 15 16 17 18 18 19 20 20 21 20 19 20 19 19 19 20 21 18 19 17 17
1 1 1 1 1 2 2 2 1 1 1 1 0 1 2 3 3 2 5 8 12 14 14 14 15 14 16 16 17 18 18 18 20 19 21 21 20 18 18 19 20 18 19 19 20 19 18
1 1 1 1 1 1 2 2 1 1 1 1 0 1 2 3 2 3 5 10 12 14 13 14 13 14 14 15 16 18 19 19 18 20 18 20 20 18 19 20 20 21 21 20 19 18 18
1 1 1 1 1 1 2 1 1 1 1 1 0 1 2 3 3 3 7 9 11 12 14 13 13 14 14 15 15 17 18 19 18 20 20 20 19 18 18 18 18 19 20 20 20 18 18
2 2 1 1 1 1 2 2 1 1 1 0 1 1 2 2 5 6 6 8 9 11 13 13 13 14 13 14 15 16 17 15 16 19 19 18 20 19 18 20 21 19 19 19 20 18 19
1 2 2 2 2 1 1 2 1 1 0 -0 1 2 3 2 3 7 7 9 9 10 12 12 13 13 14 14 14 15 16 15 15 14 17 19 19 19 20 21 21 20 20 20 19 20 19
1 1 1 1 1 1 1 2 2 1 0 -0 0 3 5 5 4 6 8 9 10 11 12 12 12 14 14 13 14 13 15 16 17 15 17 18 19 19 18 19 19 19 20 20 20 20 20
1 1 1 1 1 2 2 1 1 1 0 -0 0 3 6 7 6 6 8 8 9 12 12 13 13 13 12 13 13 13 13 14 15 16 16 17 18 17 17 17 17 14 17 19 19 19 20
0 0 1 1 1 1 2 2 2 1 1 -0 1 3 4 7 7 6 7 9 9 11 11 12 12 13 13 12 12 12 13 13 15 16 16 15 17 17 16 11 13 19 18 20 20 20 21
0 0 0 1 1 1 1 1 1 1 1 0 1 3 5 5 8 8 7 8 9 10 11 12 11 12 11 11 11 9 11 13 14 15 14 16 16 14 13 16 18 18 15 17 18 19 21
0 0 0 1 1 1 1 1 1 1 1 0 1 3 4 6 8 8 8 8 9 10 10 11 11 10 10 11 11 11 8 13 14 13 12 13 13 15 13 15 14 18 19 18 19 18 21
0 0 0 0 1 1 1 1 0 1 0 0 1 2 3 5 6 7 7 7 8 11 11 11 10 10 11 9 9 11 10 12 13 12 10 11 11 13 14 14 17 18 16 16 16 18 21
0 -0 0 1 1 1 1 1 0 1 -0 -0 0 1 3 4 6 6 7 7 8 10 10 11 11 10 10 10 11 11 10 11 12 14 12 13 13 12 12 12 13 14 14 17 20 17 18
1 1 0 0 1 1 1 0 0 0 -0 -0 -0 1 2 3 3 3 4 6 8 10 10 10 12 11 11 11 11 12 9 9 12 12 15 12 14 16 15 17 15 15 19 17 16 18 15